Latest Weather Observations for Delamere

IDD60801

Issued at 4:01 pm CST Thursday 28 July 2016 (issued every 30 minutes, with the page automatically refreshed every 10 minutes)

About weather observations | Map of weather stations | Latest weather observations for NT | Other Formats
Station Details ID: 014949 Name: DELAMERE WEAPONS RANGE Lat: -15.74 Lon: 131.92 Height: 221.0 m
Data from the previous 72 hours. | See also: Recent months at Delamere
Date/Time
CST
Temp
°C
App
Temp
°C
Dew
Point
°C
Rel
Hum
%
Delta-T
°C
Wind Press
QNH
hPa
Press
MSL
hPa
Rain since
9am
mm
Dir  Spd
km/h
Gust
km/h
Spd
kts
Gust
kts
28/04:00pm 29.0 24.5 2.3 18 13.3 SE 15 24 8 13 1014.2 - 0.0
28/03:30pm 29.0 24.5 2.3 18 13.3 E 15 28 8 15 1014.4 - 0.0
28/03:00pm 28.9 23.7 2.2 18 13.3 ESE 19 26 10 14 1014.6 1013.9 0.0
28/02:30pm 28.4 23.1 1.8 18 13.1 E 19 30 10 16 1014.9 - 0.0
28/02:00pm 27.9 22.3 1.4 18 12.9 E 20 33 11 18 1015.5 - 0.0
28/01:30pm 27.2 21.5 0.8 18 12.7 E 20 30 11 16 1016.0 - 0.0
28/01:00pm 27.2 21.4 0.1 17 12.8 E 20 35 11 19 1016.7 - 0.0
28/12:30pm 26.1 20.4 -0.8 17 12.4 E 19 30 10 16 1017.4 - 0.0
28/12:00pm 25.4 19.6 -1.4 17 12.2 E 19 30 10 16 1017.9 1017.3 0.0
28/11:30am 24.4 18.1 -0.7 19 11.5 SE 22 33 12 18 1018.3 - 0.0
28/11:00am 23.5 17.2 -0.7 20 11.0 E 22 32 12 17 1018.8 - 0.0
28/10:30am 22.5 16.2 -0.9 21 10.5 ESE 22 33 12 18 1019.1 - 0.0
28/10:00am 21.9 15.2 -0.8 22 10.1 ESE 24 37 13 20 1019.6 - 0.0
28/09:30am 20.6 13.9 -1.2 23 9.6 ESE 24 39 13 21 1019.7 - 0.0
28/09:00am 19.4 13.5 -1.1 25 8.9 ESE 20 33 11 18 1019.6 1018.9 0.0
28/08:30am 18.1 11.7 -1.7 26 8.4 ESE 22 37 12 20 1019.2 - 0.0
28/08:00am 17.4 12.3 -1.8 27 8.1 SE 15 24 8 13 1019.1 - 0.0
28/07:30am 16.7 11.9 -2.4 27 7.9 ESE 13 19 7 10 1018.8 - 0.0
28/07:00am 16.4 11.6 -2.6 27 7.8 SE 13 19 7 10 1018.5 - 0.0
28/06:30am 17.2 12.4 -2.4 26 8.1 ESE 13 20 7 11 1018.2 - 0.0
28/06:00am 17.6 12.4 -2.6 25 8.4 ESE 15 26 8 14 1017.9 1017.3 0.0
28/05:30am 18.1 12.5 -2.8 24 8.7 ESE 17 24 9 13 1017.7 - 0.0
28/05:00am 18.5 12.9 -3.0 23 8.9 SE 17 24 9 13 1017.7 - 0.0
28/04:30am 18.9 12.8 -2.7 23 9.0 SE 20 30 11 16 1017.4 - 0.0
28/04:00am 19.1 12.9 -3.1 22 9.2 SE 20 35 11 19 1017.6 - 0.0
28/03:30am 19.5 13.3 -2.8 22 9.4 SE 20 35 11 19 1017.7 - 0.0
28/03:00am 19.9 13.3 -3.0 21 9.6 SE 22 39 12 21 1017.6 1017.0 0.0
28/02:30am 20.3 14.2 -2.7 21 9.8 SE 20 35 11 19 1017.7 - 0.0
28/02:00am 20.4 14.5 -2.6 21 9.8 SE 19 32 10 17 1017.8 - 0.0
28/01:30am 20.6 15.1 -1.8 22 9.7 SE 17 30 9 16 1017.8 - 0.0
28/01:00am 20.7 14.7 -1.2 23 9.6 SE 20 28 11 15 1018.0 - 0.0
28/12:30am 20.9 15.1 -0.4 24 9.5 SE 20 28 11 15 1017.8 - 0.0
28/12:00am 21.4 15.2 0.0 24 9.7 SE 22 32 12 17 1017.7 1017.1 0.0
 
Date/Time
CST
Temp
°C
App
Temp
°C
Dew
Point
°C
Rel
Hum
%
Delta-T
°C
Wind Press
QNH
hPa
Press
MSL
hPa
Rain since
9am
mm
Dir  Spd
km/h
Gust
km/h
Spd
kts
Gust
kts
27/11:30pm 21.5 15.8 0.7 25 9.5 SE 20 32 11 17 1017.7 - 0.0
27/11:00pm 21.7 16.3 1.4 26 9.5 SE 19 28 10 15 1017.6 - 0.0
27/10:30pm 22.0 16.7 1.6 26 9.6 SE 19 26 10 14 1017.5 - 0.0
27/10:00pm 22.0 17.6 2.7 28 9.2 SSE 15 20 8 11 1017.4 - 0.0
27/09:30pm 22.4 18.1 3.5 29 9.2 SSE 15 20 8 11 1017.4 - 0.0
27/09:00pm 23.1 18.5 3.6 28 9.6 SSE 17 24 9 13 1017.2 1016.6 0.0
27/08:30pm 23.7 19.6 4.1 28 9.7 SSE 15 20 8 11 1017.0 - 0.0
27/08:00pm 24.5 19.6 4.3 27 10.1 SSE 19 24 10 13 1016.6 - 0.0
27/07:30pm 25.2 20.8 4.9 27 10.3 SSE 17 24 9 13 1016.4 - 0.0
27/07:00pm 25.8 21.0 4.9 26 10.7 SSE 19 26 10 14 1016.0 - 0.0
27/06:30pm 26.7 22.4 5.1 25 11.1 SSE 17 28 9 15 1015.7 - 0.0
27/06:00pm 27.7 23.4 5.3 24 11.7 SE 17 24 9 13 1015.1 1014.4 0.0
27/05:30pm 28.6 24.4 5.5 23 12.1 SE 17 28 9 15 1014.6 - 0.0
27/05:00pm 28.7 23.9 5.5 23 12.2 SE 20 30 11 16 1014.4 - 0.0
27/04:30pm 29.2 24.0 5.3 22 12.6 SE 22 33 12 18 1014.4 - 0.0
27/04:00pm 29.4 24.8 5.5 22 12.6 ESE 19 33 10 18 1014.2 - 0.0
27/03:30pm 28.9 24.0 5.1 22 12.4 SE 20 28 11 15 1014.4 - 0.0
27/03:00pm 28.8 23.9 5.0 22 12.4 SE 20 32 11 17 1014.6 1013.9 0.0
27/02:30pm 29.0 23.6 4.5 21 12.7 SE 22 32 12 17 1014.9 - 0.0
27/02:00pm 28.5 23.5 4.7 22 12.3 ESE 20 30 11 16 1015.2 - 0.0
27/01:30pm 28.0 22.9 4.3 22 12.2 ESE 20 32 11 17 1015.7 - 0.0
27/01:00pm 27.8 22.7 4.2 22 12.1 E 20 30 11 16 1016.2 - 0.0
27/12:30pm 27.2 21.4 4.3 23 11.7 ESE 24 33 13 18 1016.8 - 0.0
27/12:00pm 26.5 20.8 4.9 25 11.1 SE 24 37 13 20 1017.3 1016.7 0.0
27/11:30am 25.5 20.0 4.0 25 10.8 ESE 22 33 12 18 1017.9 - 0.0
27/11:00am 25.1 19.7 4.3 26 10.5 ESE 22 39 12 21 1018.1 - 0.0
27/10:30am 23.7 18.1 3.6 27 9.9 ESE 22 35 12 19 1018.5 - 0.0
27/10:00am 23.3 17.8 3.8 28 9.6 ESE 22 32 12 17 1018.6 - 0.0
27/09:30am 21.6 16.3 2.8 29 9.0 ESE 20 32 11 17 1018.6 - 0.0
27/09:00am 20.5 15.2 2.8 31 8.4 ESE 20 28 11 15 1018.5 1017.9 0.0
27/08:30am 19.4 14.0 2.3 32 8.0 ESE 20 32 11 17 1018.4 - 0.0
27/08:00am 18.5 13.7 2.4 34 7.5 ESE 17 26 9 14 1018.0 - 0.0
27/07:30am 17.9 13.5 2.6 36 7.1 ESE 15 24 8 13 1017.6 - 0.0
27/07:00am 17.9 13.1 2.6 36 7.1 ESE 17 26 9 14 1017.2 - 0.0
27/06:30am 18.2 13.9 3.3 37 7.0 ESE 15 24 8 13 1016.9 - 0.0
27/06:00am 18.1 14.2 3.6 38 6.9 ESE 13 19 7 10 1016.7 1016.0 0.0
27/05:30am 18.6 14.4 3.6 37 7.1 SE 15 22 8 12 1016.4 - 0.0
27/05:00am 18.8 15.4 3.8 37 7.2 ESE 11 15 6 8 1016.3 - 0.0
27/04:30am 19.2 15.8 4.2 37 7.2 ESE 11 17 6 9 1016.3 - 0.0
27/04:00am 19.7 15.6 4.2 36 7.5 ESE 15 20 8 11 1016.2 - 0.0
27/03:30am 20.4 16.3 4.4 35 7.8 E 15 24 8 13 1016.0 - 0.0
27/03:00am 21.1 16.2 4.2 33 8.3 E 19 32 10 17 1015.8 1015.1 0.0
27/02:30am 21.8 16.8 4.4 32 8.6 ESE 20 30 11 16 1015.7 - 0.0
27/02:00am 22.0 17.6 5.0 33 8.5 SE 17 22 9 12 1015.6 - 0.0
27/01:30am 22.5 17.8 5.0 32 8.8 SE 19 28 10 15 1015.6 - 0.0
27/01:00am 22.5 18.2 5.4 33 8.6 SE 17 22 9 12 1015.5 - 0.0
27/12:30am 22.8 18.1 5.3 32 8.8 SE 19 26 10 14 1015.3 - 0.0
27/12:00am 23.3 18.6 5.2 31 9.2 SE 19 24 10 13 1015.3 1014.6 0.0
 
Date/Time
CST
Temp
°C
App
Temp
°C
Dew
Point
°C
Rel
Hum
%
Delta-T
°C
Wind Press
QNH
hPa
Press
MSL
hPa
Rain since
9am
mm
Dir  Spd
km/h
Gust
km/h
Spd
kts
Gust
kts
26/11:30pm 23.9 19.2 5.3 30 9.5 SE 19 28 10 15 1015.4 - 0.0
26/11:00pm 24.0 19.2 4.9 29 9.7 SE 19 28 10 15 1015.5 - 0.0
26/10:30pm 23.9 20.4 5.3 30 9.5 SSE 13 28 7 15 1015.4 - 0.0
26/10:00pm 23.9 20.6 4.8 29 9.6 SSE 11 15 6 8 1015.2 - 0.0
26/09:30pm 24.0 21.1 4.4 28 9.8 SSE 9 13 5 7 1015.1 - 0.0
26/09:00pm 23.3 20.7 4.3 29 9.5 SSE 7 11 4 6 1014.9 1014.2 0.0
26/08:30pm 23.7 21.3 4.1 28 9.7 ESE 6 7 3 4 1014.6 - 0.0
26/08:00pm 25.7 23.4 4.8 26 10.7 ESE 6 7 3 4 1014.1 - 0.0
26/07:30pm 26.5 24.0 4.9 25 11.1 SE 7 11 4 6 1013.6 - 0.0
26/07:00pm 27.3 24.7 4.4 23 11.7 SE 7 9 4 5 1013.2 - 0.0
26/06:30pm 28.7 25.7 4.2 21 12.6 ESE 9 15 5 8 1012.6 - 0.0
26/06:00pm 30.2 26.8 4.0 19 13.6 ESE 11 17 6 9 1012.2 1011.5 0.0
26/05:30pm 30.7 26.5 3.7 18 13.9 ESE 15 20 8 11 1012.0 - 0.0
26/05:00pm 31.1 27.7 4.0 18 14.1 SE 11 19 6 10 1011.9 - 0.0
26/04:30pm 31.4 26.5 4.2 18 14.2 SE 19 24 10 13 1011.8 - 0.0
26/04:00pm 30.9 26.7 3.8 18 14.0 ESE 15 24 8 13 1011.9 - 0.0
26/03:30pm 31.4 26.5 4.2 18 14.2 E 19 30 10 16 1012.1 - 0.0
26/03:00pm 31.3 26.5 5.7 20 13.7 E 20 32 11 17 1012.4 1011.7 0.0
26/02:30pm 30.6 25.9 5.1 20 13.5 E 19 28 10 15 1012.9 - 0.0
26/02:00pm 30.8 27.5 6.6 22 13.1 E 13 20 7 11 1013.3 - 0.0
26/01:30pm 29.9 25.9 6.5 23 12.6 ESE 17 30 9 16 1013.8 - 0.0
26/01:00pm 29.9 25.6 7.2 24 12.4 NE 19 26 10 14 1014.4 - 0.0
26/12:30pm 28.6 24.2 7.2 26 11.6 NNE 20 24 11 13 1014.9 - 0.0
26/12:00pm 28.9 24.8 8.0 27 11.5 ENE 19 30 10 16 1015.5 1014.8 0.0
26/11:30am 28.0 23.4 8.3 29 10.8 E 22 30 12 16 1016.1 - 0.0
26/11:00am 26.6 22.8 9.0 33 9.7 ENE 19 28 10 15 1016.7 - 0.0
26/10:30am 25.3 22.1 8.3 34 9.2 E 15 24 8 13 1016.9 - 0.0
26/10:00am 24.2 20.6 6.9 33 9.1 E 15 20 8 11 1017.1 - 0.0
26/09:30am 22.8 19.1 6.1 34 8.6 E 15 20 8 11 1017.1 - 0.0
26/09:00am 21.6 17.8 5.9 36 8.0 E 15 24 8 13 1017.1 1016.5 0.0
26/08:30am 20.3 16.9 5.9 39 7.2 ESE 13 17 7 9 1016.9 - 0.0
26/08:00am 19.0 16.0 6.1 43 6.5 ESE 11 17 6 9 1016.6 - 0.0
26/07:30am 18.2 15.2 6.1 45 6.0 ESE 11 17 6 9 1016.3 - 0.0
26/07:00am 17.9 15.0 6.4 47 5.7 ESE 11 15 6 8 1016.0 - 0.0
26/06:30am 18.0 15.1 6.5 47 5.8 ESE 11 17 6 9 1015.6 - 0.0
26/06:00am 18.5 15.3 6.7 46 5.9 ESE 13 17 7 9 1015.6 1014.9 0.0
26/05:30am 18.9 16.1 7.0 46 6.1 ESE 11 17 6 9 1015.3 - 0.0
26/05:00am 18.9 16.1 7.0 46 6.1 ESE 11 15 6 8 1015.0 - 0.0
26/04:30am 18.9 16.5 7.0 46 6.1 SE 9 15 5 8 1014.9 - 0.0
26/04:00am 19.3 16.9 7.1 45 6.2 ESE 9 13 5 7 1014.7 - 0.0
26/03:30am 19.9 17.2 7.3 44 6.5 E 11 15 6 8 1014.6 - 0.0
26/03:00am 20.0 17.2 7.1 43 6.6 ESE 11 15 6 8 1014.6 1013.9 0.0
26/02:30am 20.6 17.5 7.2 42 6.9 ESE 13 17 7 9 1014.7 - 0.0
26/02:00am 20.7 17.9 7.0 41 7.1 ESE 11 15 6 8 1014.8 - 0.0
26/01:30am 21.3 18.5 6.8 39 7.5 E 11 15 6 8 1015.0 - 0.0
26/01:00am 21.7 18.8 6.4 37 7.8 ENE 11 17 6 9 1014.9 - 0.0
26/12:30am 22.6 19.4 6.8 36 8.2 SE 13 19 7 10 1014.6 - 0.0
26/12:00am 23.3 20.0 6.6 34 8.7 SE 13 19 7 10 1014.6 1013.9 0.0
 
Date/Time
CST
Temp
°C
App
Temp
°C
Dew
Point
°C
Rel
Hum
%
Delta-T
°C
Wind Press
QNH
hPa
Press
MSL
hPa
Rain since
9am
mm
Dir  Spd
km/h
Gust
km/h
Spd
kts
Gust
kts
25/11:30pm 24.0 20.0 6.7 33 9.0 SE 17 22 9 12 1014.5 - 0.0
25/11:00pm 24.4 20.4 6.6 32 9.3 SE 17 24 9 13 1014.4 - 0.0
25/10:30pm 25.1 21.5 6.8 31 9.6 SE 15 20 8 11 1014.2 - 0.0
25/10:00pm 25.2 22.4 6.9 31 9.7 SE 11 17 6 9 1014.0 - 0.0
25/09:30pm 25.0 22.7 7.6 33 9.3 E 9 11 5 6 1013.9 - 0.0
25/09:00pm 25.5 23.4 6.7 30 9.9 E 7 9 4 5 1013.5 1012.9 0.0
25/08:30pm 26.7 24.0 7.2 29 10.4 SE 11 15 6 8 1013.4 - 0.0
25/08:00pm 27.0 24.7 7.5 29 10.5 SE 9 11 5 6 1013.1 - 0.0
25/07:30pm 27.4 25.6 7.8 29 10.6 SE 7 11 4 6 1012.7 - 0.0
25/07:00pm 28.3 26.5 8.1 28 11.1 SE 7 9 4 5 1012.5 - 0.0
25/06:30pm 29.9 27.7 7.7 25 12.2 ESE 9 13 5 7 1012.3 - 0.0
25/06:00pm 31.1 27.7 7.5 23 13.0 ESE 15 20 8 11 1012.0 1011.3 0.0
25/05:30pm 31.7 28.4 8.0 23 13.2 E 15 24 8 13 1011.7 - 0.0
25/05:00pm 31.9 28.1 7.5 22 13.5 E 17 22 9 12 1011.5 - 0.0
25/04:30pm 31.6 28.3 7.9 23 13.2 ESE 15 24 8 13 1011.4 - 0.0

Other Formats:

Comma delimited format used in spreadsheet applications
http://www.bom.gov.au/fwo/IDD60801/IDD60801.94225.axf

JavaScript Object Notation format (JSON) in row-major order
http://www.bom.gov.au/fwo/IDD60801/IDD60801.94225.json